Regional Weather Roundup
Issued by NWS Green Bay, WI

Home | Current Version | Previous Version | Graphics & Text | Print | Product List | Glossary Off
Versions: 1 2 3 4 5 6 7 8 9 10 11 12 13 14 15 16 17 18 19 20 21 22 23 24 25 26 27 28 29 30 31 32 33 34 35 36 37 38 39 40 41 42 43 44 45 46 47 48 49 50

000
ASUS43 KGRB 111900
RWRGRB

NORTH-CENTRAL AND NORTHEAST WISCONSIN REGIONAL WEATHER ROUNDUP
NATIONAL WEATHER SERVICE GREEN BAY WI
100 PM CST THU FEB 11 2016

WIZ005-009-010>012-018-019-112000-
NORTH CENTRAL WISCONSIN

CITY           SKY/WX    TMP DP  RH WIND       PRES   REMARKS
IRONWOOD       SUNNY     10   0  61 W15       30.16F WCI  -6
MANITOWISH WTR NOT AVBL
ARBOR VITAE    NOT AVBL
EAGLE RIVER    NOT AVBL
LAND O LAKES   NOT AVBL
RHINELANDER    MOSUNNY   13  -4  46 W13       30.14F WCI  -2
PHILLIPS       NOT AVBL
ANTIGO         NOT AVBL
TOMAHAWK       NOT AVBL
MERRILL        NOT AVBL
$$

WIZ013-073-112000-
NORTHEAST WISCONSIN

CITY           SKY/WX    TMP DP  RH WIND       PRES   REMARKS
IRON MOUNTAIN  PTSUNNY   16   1  51 NW12      30.14F WCI   3
MARINETTE      SUNNY     16   0  48 W6        30.21F WCI   7
$$

WIZ017-030-035>037-045-112000-
CENTRAL WISCONSIN

CITY           SKY/WX    TMP DP  RH WIND       PRES   REMARKS
MEDFORD        NOT AVBL
WAUSAU         SUNNY     13  -4  46 W9        30.20F WCI   1
MOSINEE        NOT AVBL
MARSHFIELD     SUNNY     10  -3  55 W9        30.23F WCI  -3
WISC RAPIDS    SUNNY     14  -4  44 VRB7      30.27F WCI   4
STEVENS POINT  NOT AVBL
WAUPACA        SUNNY     19  -1  41 W8        30.26F WCI   8
SHAWANO        SUNNY     19   1  45 SW6       30.23F
CLINTONVILLE   NOT AVBL
WAUTOMA        NOT AVBL
$$

WIZ038-039-048-051-112000-
FOX VALLEY

CITY           SKY/WX    TMP DP  RH WIND       PRES   REMARKS
NWS GREEN BAY  SUNNY     14   1  56 SW12      30.25F WCI   0
APPLETON       SUNNY     16   0  48 SW10      30.24F WCI   3
OSHKOSH        SUNNY     14   1  56 W8        30.27F WCI   3
FOND DU LAC    SUNNY     14   1  56 W9        30.28F WCI   2
$$

WIZ022-050-052-112000-
EAST CENTRAL WISCONSIN

CITY           SKY/WX    TMP DP  RH WIND       PRES   REMARKS
EPHRAIM        FAIR      14   1  56 W9        30.19F WCI   2
STURGEON BAY   SUNNY     12   0  57 W10       30.24F WCI  -1
MANITOWOC      NOT AVBL
SHEBOYGAN      SUNNY     14   1  56 NW9       30.26F WCI   2
$$

LMZ563-521-522-541>543-112000-
LAKESHORE

STATION/POSITION TIME  TEMP    WIND        PRES    VSBY  WAVE
                       AIR SEA DIR/SP/G                  HT/PER
                 (UTC) (F)     (DEG/KT/KT) (MB)    (MI)  (FT/S)
SHEBOYGAN LKSHOR 1800   12     270/  3/  6 1027.3F
KEWAUNEE LKSHORE 1800   13     280/  8/ 11 1023.8S
ALGOMA MARINA    1811          310/  4/ 10   N/A
CHAMBERS ISLAND  1800   16     250/  5/ 10 1023.7F
MENOMINEE LKSHOR 1800   14     240/  9     1022.8F
$$



USA.gov is the U.S. government's official web portal to all federal, state and local government web resources and services.